Tracking 29892 objects as of 21-Nov-2024
HD Live streaming from Space Station
objects crossing your sky now

CZ-6A DEB

Track CZ-6A DEB now!
10-day predictions


NORAD ID: 55896
Int'l Code: 2022-151AAU
Perigee: 810.8 km
Apogee: 867.3 km
Inclination: 98.8 °
Period: 101.5 minutes
Semi major axis: 7210 km
RCS: Unknown
Launch date: November 11, 2022
Source: People's Republic of China (PRC)
Launch site: Taiyaun Space Center, China (TSC)

Note: This is SATELLITE DEBRIS
Your satellite tracking list
Your tracking list is empty




NASA's NSSDC Master Catalog

Two Line Element Set (TLE):
1 55896U 22151AAU 24324.94109073  .00008097  00000-0  39369-2 0  9998
2 55896  98.8150 328.3731 0039206 132.7514 227.6971 14.18064586 98853
Source of the keplerian elements: AFSPC